Pau, France

2:52 PM CEST on July 27, 2017 (GMT +0200)
Pau / Pyrenees

Weather History for LFBP - October, 2013

Change the Weather History Date:

Thursday, October 3, 2013

  Actual Average Record
Temperature  
Mean Temperature 72 °F -  
Max Temperature 80 °F 65 °F 82 °F (2004)
Min Temperature 64 °F 48 °F 41 °F (2005)
Cooling Degree Days 7    
Growing Degree Days 22 (Base 50)    
Moisture  
Dew Point 62 °F    
Average Humidity 74    
Maximum Humidity 94    
Minimum Humidity 54    
Precipitation  
Precipitation 0.00 in - - ()
Sea Level Pressure  
Sea Level Pressure 29.79 in    
Wind  
Wind Speed 6 mph ()    
Max Wind Speed 12 mph    
Max Gust Speed -    
Visibility 6.2 miles    
Events Rain , Thunderstorm    
Averages and records for this station are not official NWS values.
T = Trace of Precipitation, MM = Missing Value Source: Averaged Metar Reports

Daily Weather History Graph

Daily Weather History Graph

Search for Another Location

Airport or City:

Trip Planner

Search our weather history database for the weather conditions in past years. The results will help you decide how hot, cold, wet, or windy it might be!

Date:

Astronomy

Oct. 03, 2013 Rise Set
Actual Time 8:01 AM CEST 7:39 PM CEST
Civil Twilight 7:32 AM CEST 8:07 PM CEST
Nautical Twilight 6:59 AM CEST 8:40 PM CEST
Astronomical Twilight 6:26 AM CEST 9:14 PM CEST
Moon 6:17 AM CEST (10/3) 6:40 PM CEST (10/3)
Length of Visible Light 12h 34m
Length of Day
11h 37m
Waning Crescent, 3% of the Moon is Illuminated
Oct 3
Waning Crescent
Oct 5
New
Oct 12
First Quarter
Oct 19
Full
Oct 27
Last Quarter

Hourly Weather History & Observations

Time (CEST) Temp. Heat Index Dew Point Humidity Pressure Visibility Wind Dir Wind Speed Gust Speed Precip Events Conditions
12:00 AM 69.8 °F - 64.4 °F 83% 29.77 in 6.2 mi ESE 6.9 mph - N/A   Unknown
12:30 AM 69.8 °F - 62.6 °F 78% 29.77 in 6.2 mi ESE 6.9 mph - N/A   Unknown
1:00 AM 68.0 °F - 62.6 °F 83% 29.77 in 6.2 mi ESE 5.8 mph - N/A   Unknown
1:30 AM 68.0 °F - 62.6 °F 83% 29.77 in 6.2 mi Variable 2.3 mph - N/A   Unknown
2:00 AM 68.0 °F - 62.6 °F 83% 29.74 in 6.2 mi East 6.9 mph - N/A   Unknown
2:30 AM 68.0 °F - 62.6 °F 83% 29.74 in 6.2 mi East 10.4 mph - N/A   Unknown
3:00 AM 68.0 °F - 62.6 °F 83% 29.74 in 6.2 mi East 8.1 mph - N/A   Unknown
3:30 AM 68.0 °F - 62.6 °F 83% 29.71 in 6.2 mi ESE 8.1 mph - N/A   Unknown
4:00 AM 68.0 °F - 62.6 °F 83% 29.71 in 6.2 mi ESE 4.6 mph - N/A   Unknown
4:30 AM 68.0 °F - 60.8 °F 78% 29.71 in 6.2 mi East 3.5 mph - N/A   Unknown
5:00 AM 68.0 °F - 60.8 °F 78% 29.71 in 6.2 mi ESE 4.6 mph - N/A   Unknown
5:30 AM 64.4 °F - 60.8 °F 88% 29.71 in 6.2 mi East 5.8 mph - N/A   Unknown
6:00 AM 64.4 °F - 60.8 °F 88% 29.68 in - East 5.8 mph - N/A   Clear
6:30 AM 64.4 °F - 60.8 °F 88% 29.71 in - East 2.3 mph - N/A   Clear
7:00 AM 64.4 °F - 60.8 °F 88% 29.71 in - SE 4.6 mph - N/A   Clear
7:30 AM 64.4 °F - 60.8 °F 88% 29.71 in - NE 3.5 mph - N/A   Clear
8:00 AM 66.2 °F - 60.8 °F 83% 29.77 in - South 4.6 mph - N/A   Clear
8:30 AM 66.2 °F - 60.8 °F 83% 29.80 in 6.2 mi SE 3.5 mph - N/A   Mostly Cloudy
9:00 AM 68.0 °F - 60.8 °F 78% 29.77 in 6.2 mi SE 11.5 mph - N/A   Mostly Cloudy
9:30 AM 73.4 °F - 57.2 °F 57% 29.77 in 6.2 mi ESE 11.5 mph - N/A   Mostly Cloudy
10:00 AM 73.4 °F - 57.2 °F 57% 29.80 in - ESE 11.5 mph - N/A   Clear
10:30 AM 71.6 °F - 57.2 °F 60% 29.80 in - SE 11.5 mph - N/A   Clear
11:00 AM 71.6 °F - 57.2 °F 60% 29.80 in 6.2 mi ESE 10.4 mph - N/A   Mostly Cloudy
11:30 AM 71.6 °F - 59.0 °F 64% 29.83 in 6.2 mi Variable 3.5 mph - N/A   Mostly Cloudy
12:00 PM 73.4 °F - 57.2 °F 57% 29.83 in 6.2 mi ESE 4.6 mph - N/A   Mostly Cloudy
12:30 PM 75.2 °F - 59.0 °F 57% 29.83 in 6.2 mi ESE 5.8 mph - N/A   Scattered Clouds
1:00 PM 77.0 °F - 59.0 °F 54% 29.83 in 6.2 mi East 6.9 mph - N/A   Scattered Clouds
1:30 PM 77.0 °F - 60.8 °F 57% 29.83 in 6.2 mi East 6.9 mph - N/A   Scattered Clouds
2:00 PM 77.0 °F - 62.6 °F 61% 29.80 in 6.2 mi East 10.4 mph - N/A   Mostly Cloudy
2:30 PM 77.0 °F - 62.6 °F 61% 29.80 in 6.2 mi East 6.9 mph - N/A   Mostly Cloudy
3:00 PM 78.8 °F - 62.6 °F 57% 29.80 in 6.2 mi East 6.9 mph - N/A   Mostly Cloudy
3:30 PM 78.8 °F - 62.6 °F 57% 29.80 in 6.2 mi East 5.8 mph - N/A   Mostly Cloudy
4:00 PM 78.8 °F - 64.4 °F 61% 29.80 in 6.2 mi ENE 4.6 mph - N/A   Mostly Cloudy
4:30 PM 78.8 °F - 64.4 °F 61% 29.80 in 6.2 mi ENE 6.9 mph - N/A   Mostly Cloudy
5:00 PM 80.6 °F 82.3 °F 64.4 °F 58% 29.80 in 6.2 mi East 3.5 mph - N/A   Scattered Clouds
5:30 PM 80.6 °F 82.3 °F 64.4 °F 58% 29.80 in 6.2 mi Variable 2.3 mph - N/A   Scattered Clouds
6:00 PM 78.8 °F - 64.4 °F 61% 29.80 in 6.2 mi East 4.6 mph - N/A   Scattered Clouds
6:30 PM 77.0 °F - 64.4 °F 65% 29.80 in 6.2 mi Variable 2.3 mph - N/A   Mostly Cloudy
7:00 PM 77.0 °F - 66.2 °F 69% 29.83 in 6.2 mi ESE 8.1 mph - N/A   Scattered Clouds
7:30 PM 75.2 °F - 66.2 °F 73% 29.83 in 6.2 mi East 4.6 mph - N/A   Scattered Clouds
8:00 PM 73.4 °F - 66.2 °F 78% 29.80 in 6.2 mi ESE 5.8 mph - N/A   Scattered Clouds
8:30 PM 71.6 °F - 64.4 °F 78% 29.83 in 6.2 mi ENE 3.5 mph - N/A   Scattered Clouds
9:00 PM 71.6 °F - 66.2 °F 83% 29.83 in 6.2 mi East 4.6 mph - N/A   Mostly Cloudy
9:30 PM 69.8 °F - 64.4 °F 83% 29.83 in 6.2 mi NE 3.5 mph - N/A   Unknown
10:00 PM 69.8 °F - 64.4 °F 83% 29.86 in 6.2 mi Variable 3.5 mph - N/A Thunderstorm Unknown
10:30 PM 68.0 °F - 66.2 °F 94% 29.86 in 6.2 mi NNW 3.5 mph - N/A Thunderstorm Unknown
11:00 PM 69.8 °F - 66.2 °F 88% 29.92 in 6.2 mi NNW 8.1 mph - N/A Rain Light Rain
11:30 PM 68.0 °F - 66.2 °F 94% 29.95 in 6.2 mi NNW 5.8 mph - N/A Rain , Thunderstorm Light Thunderstorms and Rain